sat.trackr.live / text

‹ back to catalog

STARLINK-34389

NORAD 64351 · 2025-126H

PAYLOAD ACTIVE UNKNOWN

§ Identity

Operator
Country
US
Launch date
2025-06-13
Launch site
AFWTR
Launch vehicle
Mass (kg)
RCS (m²)

Purposes: comms

External: N2YO · Heavens-Above · Gunter

§ Orbital elements

Epoch: 2026-05-25T03:19:48.412992Z

Period
96.11 min
Inclination
70.0006°
Eccentricity
0.0003723
Mean motion
14.98336214 rev/d
Perigee alt
569.4 km
Apogee alt
574.6 km
Semi-major
6,950.2 km
B*
2.2392e-4
RAAN
201.6780°
Arg perigee
269.2422°
Mean anomaly
90.8310°
Rev number
5,213

§ Raw data

STARLINK-343891 64351U 25126H   26145.13875478  .00002580  00000+0  22392-3 0  99912 64351  70.0006 201.6780 0003723 269.2422  90.8310 14.98336214 52133

JSON: /api/v1/satellites/64351 · /tle

For live sub-satellite position, see the globe view (requires WebGL).

§ Visibility from observer

Set your observer location to see the next 7 days of passes ≥ 10°. The values pass through the URL so the page stays shareable.

No JS? Fill the form by hand. The geolocation button needs JavaScript.